User: anonymous   Login
Location: Bergnershof
(48.9468°N, 10.9431°E)
Time: 18:02:25
(UTC+00:00)
Language:

Meteor 1-25 Rocket - Orbit

View from above orbital plane
View from above orbital plane
View from above satellite
View from above satellite

Ground track
Ground track

The orbit data is extracted from the following two-line orbital elements,

1  8846U 76043B   21129.42520234  .00000027  00000-0  88307-5 0  9993
2  8846  81.2215   7.8792 0038371 325.5989  34.2697 14.08580528311291
Epoch (UTC): 09 May 2021 10:12:17
Eccentricity: 0.0038371
inclination: 81.2215°
perigee height: 836 km
apogee height: 892 km
right ascension of ascending node: 7.8792°
argument of perigee: 325.5989°
revolutions per day: 14.08580528
mean anomaly at epoch: 34.2697°
orbit number at epoch: 31129

The dashed part of the orbit path shows where the satellite is in the earth's shadow,  

DLR